Flag for Rwanda Weather past 2 weeks in Gitarama, Rwanda

Now
68 °F

Partly cloudy.


Feels Like: 68 °F
Forecast: 63 / 80 °F
Wind: 5 mph from Northwest

Location: Kigali Airport

Current Time: Aug 21, 2014 at 12:25:39 AM

Latest Report: Aug 20, 2014 at 11:00 PM


Visibility: N/A

Pressure: 30.12 "Hg

Humidity: 78%

Dew point: 61 °F

Location of GitaramaLocation

Historic Weather in Gitarama — Graph

°F

Gitarama temperature yesterday

Maximum temperature yesterday: 79 °F (at 10:00 AM)
Minimum temperature yesterday: 66 °F (at 6:30 AM)
Average temperature yesterday: 72 °F

Past Weeks' High & Low Weather Summary

 TemperatureHumidityPressure
High84 °F (Aug 7, 3:30 PM)100% (Aug 11, 1:00 AM)30.24 "Hg (Aug 11, 1:00 AM)
Low61 °F (Aug 11, 3:30 AM)35% (Aug 7, 3:30 PM)30.01 "Hg (Aug 11, 3:30 PM)
Average71 °F70%30.14 "Hg
* Reported Aug 5 11:00 PM — Aug 20 11:00 PM, Gitarama, Weather by CustomWeather, © 2014

Note: Actual official high and low records may vary slightly from our data, if they occured in-between our weather recording intervals... More about our weather records

Advertising

Gitarama weather history for previous 24 hours

 ConditionsComfort  
Time TempWeatherWind HumidityBarometerVisibility
11:00 PM
Aug 20
68 °FPartly cloudy.5 mph78%30.12 "HgN/A
10:00 PM68 °FPassing clouds.5 mph78%30.15 "HgN/A
9:00 PM68 °FPassing clouds.2 mph73%30.15 "HgN/A
8:00 PM70 °FPartly cloudy.6 mph73%30.12 "HgN/A
6:00 PM72 °FScattered clouds.5 mph73%30.09 "HgN/A
5:30 PM73 °FPartly sunny.7 mph65%30.09 "HgN/A
5:00 PM73 °FPartly sunny.N/A69%30.09 "HgN/A
4:30 PM70 °FPartly sunny.N/A78%30.09 "HgN/A
4:00 PM70 °FThunderstorms. Partly sunny.3 mph78%30.09 "HgN/A
3:30 PM70 °FThunderstorms. Partly sunny.8 mph73%30.09 "HgN/A
3:00 PM79 °FThunderstorms. Partly sunny.12 mph54%30.09 "HgN/A
2:30 PM79 °FThunderstorms. Partly sunny.8 mph54%30.09 "HgN/A
2:00 PM75 °FThunderstorms. Partly sunny.7 mph65%30.12 "HgN/A
1:30 PM75 °FPartly sunny.8 mph69%30.12 "HgN/A
1:00 PM75 °FPartly sunny.8 mph65%30.15 "HgN/A
12:30 PM79 °FRain showers. Partly sunny.6 mph51%30.15 "HgN/A
10:30 AM79 °FPartly sunny.5 mph54%30.21 "HgN/A
10:00 AM79 °FPartly sunny.6 mph51%30.24 "HgN/A
9:30 AM75 °FPassing clouds.3 mph57%30.24 "HgN/A
9:00 AM75 °FPassing clouds.5 mph54%30.24 "HgN/A
8:30 AM73 °FPartly sunny.No wind57%30.24 "HgN/A
8:00 AM72 °FBroken clouds.No wind65%30.21 "HgN/A
7:30 AM68 °FScattered clouds.No wind78%30.21 "HgN/A
7:00 AM66 °FScattered clouds.No wind83%30.21 "HgN/A
6:30 AM66 °FScattered clouds.No wind83%30.18 "HgN/A
6:00 AM68 °FPartly cloudy.No wind78%30.18 "HgN/A
5:30 AM68 °FPartly cloudy.3 mph73%30.15 "HgN/A
5:00 AM70 °FPartly cloudy.3 mph73%30.15 "HgN/A
4:30 AM68 °FPartly cloudy.No wind78%30.15 "HgN/A
4:00 AM68 °FPartly cloudy.No wind78%30.12 "HgN/A
3:30 AM68 °FPassing clouds.No wind78%30.12 "HgN/A
3:00 AM70 °FPartly cloudy.No wind69%30.12 "HgN/A
2:00 AM70 °FPartly cloudy.No wind69%30.12 "HgN/A
1:30 AM70 °FPassing clouds.3 mph69%30.12 "HgN/A
1:00 AM70 °FPassing clouds.5 mph69%30.15 "HgN/A
12:30 AM70 °FPassing clouds.No wind69%30.15 "HgN/A
12:00 AM72 °FPassing clouds.No wind65%30.15 "HgN/A
Weather by CustomWeather, © 2014

See weather overviewHow to use our weather pages